Cloud_Cover
0 0 9 16 1 0 0 0 1 19 1 0 0 0 0 0 0 0 0 0 0 0 2 5 5 5 5 5 5 5 5 5 0 1 5 5 0 6
0 0 5 10 5 5 1 0 0 0 3 0 0 2 0 0 0 0 0 0 2 5 5 5 5 5 5 5 9 5 5 3 5 5 5 5 2 0
0 0 1 5 29 19 3 0 0 0 0 0 0 0 0 0 0 1 0 5 5 5 11 20 5 52 34 31 100 79 82 6 5 5 44 68 5 3
0 0 3 0 5 5 9 0 0 0 0 5 0 0 0 0 0 5 5 5 5 5 7 100 88 73 94 64 100 100 38 78 53 74 77 100 100 14
0 0 0 0 4 5 18 2 0 5 5 7 24 23 22 4 0 2 5 5 8 99 100 100 100 100 92 100 100 30 100 70 99 27 40 88 16 98
1 0 0 5 0 2 5 5 4 5 6 53 71 100 100 59 5 5 41 76 83 54 100 100 99 62 88 86 67 31 64 75 5 48 6 22 36 31
1 0 0 0 0 0 23 7 5 8 92 52 88 84 68 21 5 40 63 96 100 100 100 87 100 54 60 6 5 20 66 100 55 22 66 38 72 100
0 0 0 0 0 1 0 5 5 5 50 44 38 54 5 5 27 11 6 51 99 57 100 98 92 11 84 48 9 5 90 28 100 43 100 5 69 100
0 0 0 0 0 0 59 25 39 5 14 5 5 5 4 5 7 11 4 4 13 15 5 6 2 5 99 51 37 7 69 100 100 100 100 80 14 6
0 0 0 0 0 0 0 0 0 2 5 5 5 1 4 0 3 5 4 0 0 0 3 7 4 5 30 37 93 94 93 100 100 100 100 41 15 12
0 0 0 0 0 0 0 0 0 0 0 0 2 2 5 0 33 4 0 1 0 0 3 11 8 5 7 99 58 100 100 100 100 100 100 100 100 90
0 0 0 0 0 0 0 0 0 0 0 0 0 2 45 0 38 9 3 0 5 0 0 5 5 15 3 66 96 99 99 100 100 100 100 100 100 100
0 0 0 0 0 0 1 0 0 2 0 0 0 0 0 0 0 1 0 0 0 0 0 1 2 8 98 82 100 100 100 100 100 100 100 100 100 100
0 0 0 0 0 0 44 0 0 66 0 0 0 0 2 2 0 0 0 4 5 11 91 32 9 19 7 21 36 98 100 100 100 100 98 80 97 100
0 0 0 0 0 65 22 0 73 2 0 0 0 2 2 0 3 5 5 18 57 14 36 94 84 0 2 1 5 5 100 83 95 100 100 92 94 95
0 0 0 1 25 15 9 34 1 0 0 0 0 0 0 4 5 54 5 14 4 5 46 57 10 43 4 0 19 21 55 97 26 96 94 98 98 74
0 0 0 0 0 0 0 0 0 0 0 0 0 1 5 5 0 1 3 2 2 0 0 3 12 16 18 50 83 99 73 100 100 98 59 78 100 11
11 4 0 0 0 0 0 0 0 0 0 0 0 22 99 100 82 34 99 95 98 76 24 10 4 17 91 83 82 99 73 98 97 90 89 24 11 32
96 98 16 1 9 20 11 5 0 0 0 0 0 18 93 100 100 100 100 100 100 100 100 100 100 53 87 47 8 74 62 80 78 89 79 62 64 82
100 99 88 38 55 96 94 90 44 36 7 1 24 20 98 38 92 88 68 94 98 43 12 64 91 82 94 96 35 43 99 86 67 54 99 97 76 61
100 100 100 82 99 90 97 82 61 96 100 100 100 100 100 80 93 66 29 20 11 7 80 88 19 90 39 75 79 85 7 72 55 44 44 88 100 99
100 100 100 100 100 81 100 87 82 87 91 95 100 100 100 100 100 100 100 43 31 24 20 88 92 98 74 100 85 83 59 46 100 100 100 83 96 100
100 100 100 100 100 56 50 96 100 100 100 100 100 100 100 100 100 100 100 100 100 92 66 76 69 100 100 93 100 100 100 100 62 40 67 94 100 100